Regional Weather Roundup
Issued by NWS

Home | Current Version | Previous Version | Graphics & Text | Print | Product List | Glossary On
Versions: 1 2 3 4 5 6 7 8 9 10 11 12 13 14 15 16 17 18 19 20 21 22 23 24 25 26 27
000
ASUS45 KCYS 210410
RWRWY

WYOMING REGIONAL WEATHER ROUNDUP
NATIONAL WEATHER SERVICE CHEYENNE WY
900 PM MST MON FEB 20 2017

NOTE:  "FAIR" INDICATES FEW OR NO CLOUDS BELOW 12,000 FEET
WITH NO SIGNIFICANT WEATHER AND/OR OBSTRUCTIONS TO VISIBILITY.

WYZ001-210500-
YELLOWSTONE NATIONAL PARK

CITY           SKY/WX    TMP DP  RH WIND       PRES   REMARKS
LK YELLOWSTONE   N/A     31  31 100 CALM      29.89S
W YELLOWSTONE  NOT AVBL

$$
WYZ002>013-054>058-071-098>099-210500-
NORTHERN WYOMING

CITY           SKY/WX    TMP DP  RH WIND       PRES   REMARKS
JACKSON        CLOUDY    34  32  93 SW8       29.92F WCI  27
CODY           FAIR      42  30  62 N7        29.80F
GREYBULL       FAIR      42  30  62 SE8       29.79S
WORLAND        FAIR      43  32  65 S18       29.82R
SHERIDAN       FAIR      58  25  28 SE12      29.72R
BUFFALO        FAIR      52  26  36 SW32G51   29.72F
GILLETTE       FAIR      49  30  48 SW25G35   29.76S
HULETT         FAIR      52  30  43 SW20      29.77F
NEWCASTLE      FAIR      46  30  53 SE13G18   29.87R

$$
WYZ014>020-022>026-101>103-210500-
CENTRAL WYOMING

CITY           SKY/WX    TMP DP  RH WIND       PRES   REMARKS
BIG PINEY      LGT SNOW  31  30  96 S10       30.00F WCI  22
PINEDALE       LGT SNOW  32  32 100 SE10      30.02F WCI  24
DUBOIS         MOCLDY    34  28  80 NW8       29.90S WCI  27
LANDER         CLOUDY    42  30  62 SE17      29.89R
RIVERTON       FAIR      41  29  62 SE5       29.91R
CASPER         FAIR      44  31  60 SW23G29   29.96R
DOUGLAS        FAIR      48  27  44 W23G35    29.90F

$$
WYZ021-027>030-104>119-210500-
SOUTHERN WYOMING

CITY           SKY/WX    TMP DP  RH WIND       PRES   REMARKS
EVANSTON       LGT RAIN  38  30  73 SW29G38   30.00S WCI  26
KEMMERER         N/A     36  32  87 SW12      30.02R WCI  27
FORT BRIDGER   CLOUDY    40  32  72 SW8       30.03F WCI  35
ROCK SPRINGS   MOCLDY    40  28  62 SW13      30.03R WCI  32
DIXON            N/A     41  30  64 SW7       30.15R
RAWLINS        FAIR      40  29  64 SW31G44   30.02F WCI  28
SARATOGA       FAIR      39  23  52 SE9G22    30.05F WCI  33
LARAMIE        FAIR      36  19  50 S9        30.04R WCI  29
CHEYENNE       FAIR      44  16  32 VRB5      30.01R
TORRINGTON     FAIR      48  20  32 SW10      29.92S
PINE BLUFFS    FAIR      41  18  38 SW12      29.99R

$$




USA.gov is the U.S. government's official web portal to all federal, state and local government web resources and services.